Air Resources Laboratory banner image
Air Resources Laboratory web site National Oceanic and Atmospheric Administration (NOAA)

or roundup


Office: PQR

ASUS46 KPQR 191010
RWROR

OREGON REGIONAL WEATHER ROUNDUP
NATIONAL WEATHER SERVICE PORTLAND OR
300 AM PDT FRI OCT 19 2018

NOTE: "FAIR" INDICATES FEW OR NO CLOUDS BELOW 12,000 FEET WITH
NO SIGNIFICANT WEATHER AND/OR OBSTRUCTIONS TO VISIBILITY.

ORZ001>013-191100-
NORTHWEST OREGON


CITY           SKY/WX    TMP DP  RH WIND       PRES   REMARKS
ASTORIA        FOG       46  46 100 CALM      30.23S VSB 1/4
TILLAMOOK      FOG       37  37 100 CALM      30.25S VSB 3/4
NEWPORT        CLEAR     41  41 100 E5        30.25S FOG
PORTLAND       PTCLDY    45  42  89 CALM      30.23R
VANCOUVER WA   CLEAR     43  40  89 CALM      30.22S
SCAPPOOSE      CLEAR     41  40  96 CALM      30.22S FOG
HILLSBORO      CLEAR     41  38  89 CALM      30.21S
AURORA         CLEAR     45  43  93 CALM      30.22R
MCMINNVILLE    FOG       38  38 100 CALM      30.21S VSB 1/2
SALEM          CLEAR     43  39  86 CALM      30.20S
CORVALLIS      CLEAR     39  37  92 CALM      30.21S
EUGENE         CLEAR     39  33  79 CALM      30.21S
$$

ORZ021-028-191100-
SOUTHWEST OREGON


CITY           SKY/WX    TMP DP  RH WIND       PRES   REMARKS
NORTH BEND     CLOUDY    50  49  96 SE5       30.22S FOG
BROOKINGS      FOG       47  47 100 CALM      30.19S VSB 1/2
ROSEBURG       CLEAR     46  38  73 CALM      30.20S
SEXTON SUMMIT  CLEAR     59  26  28 SE7       30.26S
GRANTS PASS    DRIZZLE   41  34  75 CALM      30.23S
MEDFORD        CLEAR     44  34  67 CALM      30.21S
$$

ORZ014>016-041-191100-
COLUMBIA GORGE


CITY           SKY/WX    TMP DP  RH WIND       PRES   REMARKS
TROUTDALE      CLEAR     43  39  86 CALM      30.22S
HOOD RIVER     CLEAR     37  36  93 CALM      30.27R
THE DALLES     CLEAR     43  38  82 CALM      30.27R
$$

ORZ029>031-041-044-049-050-061>064-502-503-505>511-191100-
EASTERN OREGON


CITY           SKY/WX    TMP DP  RH WIND       PRES   REMARKS
MADRAS         PTCLDY    37  28  70 SE3       30.29S
REDMOND        PTCLDY    37  17  44 CALM      30.29R
BEND           PTCLDY    43  21  42 S5        30.30S
PRINEVILLE     PTCLDY    32  18  55 S3        30.29S
KLAMATH FALLS  PTCLDY    31  26  82 CALM      30.30S
LAKEVIEW       CLEAR     30  22  72 CALM      30.33S
HERMISTON      CLEAR     36  34  92 CALM      30.25S
PENDLETON      CLEAR     40  34  79 E8        30.25R
JOHN DAY       PTCLDY    45  30  55 SE8       30.32S
MEACHAM        CLEAR     28  24  85 CALM      30.30S
LA GRANDE      CLEAR     34  31  88 CALM      30.32R
BAKER CITY     PTCLDY    32  29  88 CALM      30.31S
BURNS          MOCLDY    27  18  69 W5        30.32S
ROME             N/A     36  24  62 SE3       30.31S
ONTARIO        CLEAR     38  32  79 CALM      30.30R
$$




Office: LKN ASUS65 KLKN 190624 RTPLKN Regional Temperature And Precipitation Table...Late Evening National Weather Service Elko NV 1124 PM PDT Thu Oct 18 2018 ***Automated Airport Stations*** Values represent lows over the last 24 hours... Highs over the last 24 hours and precipitation over the last 24 hours...ending at 10 PM PST/11 PM PDT. .BR LKN 1018 P DH22/TAIRZS/TAIRZI/PPDRZZ/SFDRZZ/SDIRZZ : :ID Station Elev / Max / Min / Pcpn / :.................................................................... : EKO : Elko ASOS 5074 : 67 / 24 / 0.00 / ELY : Ely ASOS 6262 : 61 / 24 / 0.00 / P68 : Eureka ASOS 5936 : 63 / 27 / 0.00 / TPH : Tonopah ASOS 5395 : 67 / 34 / 0.00 / ENV : Wendover AWOS 4236 : 62 / 38 / 0.00 / WMC : Winnemucca ASOS 4314 : 72 / 23 / 0.00 / .END ***Manual synoptic reporting stations in north and central Nevada*** Values reflect the previous 24 hours ending at 10 PM PST/11 PM PDT *Snow stations may only report during periods of snowfall* .BR LKN 1018 P DH22/TAIRZX/TAIRZN/PPDRZZ/SFDRZZ/SDIRZZ : Snow Snow :ID Station Elev Max / Min / Pcpn / Fall / Dpth :.................................................................... : SLKN2 : Elko NWS Office 5235 : 66 / 26 / 0.00 / 0.0 / 0 SELN2 : Ely Snow 6487 : M / M / 0.00 / 0.0 / 0 SWIN2 : Winnemucca Snow 4355 : M / M / 0.00 / 0.0 / 0 .END ***Cooperative stations in north and central Nevada*** Values reflect the previous 24 hours Report time as indicated .BR LKN 1018 P DH16/TAIRZX/TAIRZN/PPDRZZ/SFDRZZ/SDIRZZ : Snow Snow :ID Station Elev Time / Max / Min / Pcpn / Fall / Dpth :.................................................................... : B23 : Battle MT. 4SE 4505 5 PM: 72 / 33 / 0.00 / 0.0 / 0 BOWN2 : Beowawe 4700 4 PM: 68 / 20 / 0.00 / 0.0 / 0 MCDN2 : McDermitt 4340 4 PM: 71 / 22 / 0.00 / 0.0 / 0 ORVN2 : Orovada 3W 4200 8 PM: 74 / 24 / 0.00 / 0.0 / 0 WLSN2 : Wells 7NNE 5831 9 PM: 63 / 23 / 0.00 / 0.0 / 0 AWH : Wild Horse Res. 6239 6 PM: 63 / 18 / 0.00 / 0.0 / 0 .END M = Missing data T = Trace amounts ASOS = Automated Surface Observing System AWOS = Automated Weather Observation System NWS = National Weather Service These data are preliminary and have not undergone final quality control (QC) by NCEI. Therefore, these data are subject to revision. Final and certified data can be accessed at the National Centers For Environmental Information (NCEI) - www.ncei.noaa.gov $$ BA